Regional Weather Roundup
Issued by NWS

Current Version | Previous Version | Text Only | Print | Product List | Glossary On
Versions: 1 2 3 4 5 6 7 8 9 10 11 12 13 14 15 16 17 18 19 20 21 22 23 24 25 26 27 28 29 30 31 32 33 34 35 36 37 38 39 40 41 42 43 44 45 46 47 48 49 50
000
ASUS46 KLOX 011612
RWRCA

SOUTHERN CALIFORNIA WEATHER ROUNDUP
NATIONAL WEATHER SERVICE OXNARD CALIFORNIA
900 AM PDT WED OCT 01 2014

NOTE: "FAIR" INDICATES FEW OR NO CLOUDS BELOW 12,000 FEET WITH NO
SIGNIFICANT WEATHER AND/OR OBSTRUCTIONS TO VISIBILITY.

  -  STATIONS PRECEEDED BY AN ASTERISK (*) ARE NOT NWS OR FAA
     STATIONS AND ARE NOT SUBJECT TO NWS AND FAA QUALITY CONTROL.

CAZ041-042-087-011700-
LA AND ORANGE COUNTY COASTAL AREAS


CITY           SKY/WX    TMP DP  RH WIND       PRES   REMARKS
L.A. DOWNTOWN  MOSUNNY   70  61  73 E3        29.82R
L.A. AIRPORT   PTSUNNY   68  61  78 E5        29.83R FOG
LONG BEACH     CLOUDY    70  63  78 SE5       29.83R

CITY           SKY/WX    TMP DP  RH WIND       PRES   REMARKS
AVALON           N/A     64 N/A N/A S8          N/A
FULLERTON      MOSUNNY   71  61  70 CALM      29.82R
*GETTY CENTER    N/A     64  61  88 E3          N/A
HAWTHORNE      PTSUNNY   70  62  76 E6        29.83R
*LEO CARRILLO    N/A     70  62  77 E9          N/A
*LOS ALAMITOS  PTSUNNY   70  63  78 CALM      29.83R
*REDONDO BEACH   N/A     67  64  90 E3        29.82R
SANTA ANA      MOSUNNY   73  61  65 VRB3      29.82R
STA MONICA APT PTSUNNY   68  61  78 VRB3      29.83R
TORRANCE       PTSUNNY   72  64  78 VRB7      29.83R
*UCLA            N/A     68  61  77 CALM      29.80S

$$

CAZ547-548-048-011700-
LA COUNTY VALLEYS AND INLAND EMPIRE


CITY           SKY/WX    TMP DP  RH WIND       PRES   REMARKS
BURBANK        SUNNY     66  57  72 SE6       29.83R
VAN NUYS       SUNNY     68  54  60 SE3       29.83R

CITY           SKY/WX    TMP DP  RH WIND       PRES   REMARKS
CORONA AIRPORT SUNNY     66  56  70 CALM      29.84R
*CHATSWORTH      N/A     70  59  67 CALM      29.79S
CHINO          SUNNY     68  57  68 CALM      29.85R
*CLAREMONT       N/A     75  50  40 SW2         N/A
MARCH AFB      SUNNY     67  50  55 E3        29.86R
*NORTHRIDGE      N/A     68  54  60 S1          N/A
ONTARIO        SUNNY     69  55  60 CALM      29.84R
*PASADENA        N/A     68  59  73 E1          N/A
POMONA         SUNNY     68  50  52 CALM      29.87R
RIVERSIDE      SUNNY     69  54  58 CALM      29.84R
SAN BERNARDINO SUNNY     64  41  42 CALM      29.85R
*SAN GABRIEL     N/A     70  57  63 CALM      29.80S
*SAN RAFAEL HI   N/A     78  57  47 CALM        N/A
*SAUGUS          N/A     73  41  31 CALM        N/A
*WHITEMAN AP   SUNNY     66  54  63 CALM      29.87R
*WOODLAND HILL   N/A     70  55  60 NE2         N/A

$$

CAZ054-055-011700-
LA AND SAN BERNARDINO COUNTY MOUNTAINS


CITY           SKY/WX    TMP DP  RH WIND       PRES   REMARKS
*ACTON           N/A     59  37  44 N3          N/A
*BIG BEAR AIRP SUNNY     54  30  40 E5        30.09R
*BIG PINES       N/A     57  33  40 SE5         N/A
*CHILAO          N/A     64  33  31 NE23        N/A
MT WILSON NWS    N/A     66  34  30 NW1         N/A
SANDBERG       SUNNY     65  42  43 N7        29.99R
*WARM SPRINGS    N/A     70  40  33 NE15        N/A

$$

CAZ028-029-059-060-099-011700-
ANTELOPE VALLEY AND SURROUNDING AREAS


CITY           SKY/WX    TMP DP  RH WIND       PRES   REMARKS
LANCASTER      SUNNY     66  46  48 CALM      29.92R
PALMDALE       SUNNY     68  41  37 CALM      29.93R
*POPPY PARK      N/A     73  45  36 SW5G70      N/A

CITY           SKY/WX    TMP DP  RH WIND       PRES   REMARKS
29 PALMS       SUNNY     72  40  31 NW5       29.93R
BARSTOW/DAGGET SUNNY     70  45  40 W13       29.89R
BISHOP         SUNNY     61  28  28 N18G25    30.10R
CHINA LAKE     SUNNY     73  37  27 N7        29.92R
EDWARDS AFB    SUNNY     64  46  52 SW2       29.91R
MOJAVE         FAIR      68  43  40 E5        29.93R
NEEDLES        SUNNY     77  41  27 N8        29.81R
VICTORVILLE    SUNNY     64  43  45 CALM      29.94R

$$

CAZ039-040-011700-
VENTURA AND SANTA BARBARA COUNTY COAST


CITY           SKY/WX    TMP DP  RH WIND       PRES   REMARKS
CAMARILLO      SUNNY     65  53  65 CALM      29.81R
NWS OXNARD       N/A     67  54  63 CALM      29.82R
OXNARD AIRPORT SUNNY     68  51  54 CALM      29.81R
*POINT MUGU    MOSUNNY   69  58  67 CALM      29.82R
SBA APT/GOLETA SUNNY     67  60  78 SE7       29.82R
*VENTURA         N/A     64  58  82 W5        29.84S

$$

CAZ044-045-011700-
VENTURA COUNTY VALLEYS


CITY           SKY/WX    TMP DP  RH WIND       PRES   REMARKS
*SIMI VALLEY     N/A     72  54  52 CALM      29.77F
*OJAI            N/A     68  50  51 CALM      29.78R
*FILLMORE        N/A     68  52  56 CALM      29.72F

$$

CAZ053-011700-
VENTURA COUNTY MOUNTAINS


CITY           SKY/WX    TMP DP  RH WIND       PRES   REMARKS
*LOCKWOOD VLY    N/A     61  36  39 MISG        N/A
*ROSE VALLEY     N/A     61  46  59 MISG        N/A

$$

CAZ034-035-036-011700-
CENTRAL COAST AND SANTA YNEZ VALLEY


CITY           SKY/WX    TMP DP  RH WIND       PRES   REMARKS
SAN LUIS OBISP SUNNY     73  51  46 N3        29.85R
SANTA MARIA    SUNNY     69  55  60 CALM      29.84R

CITY           SKY/WX    TMP DP  RH WIND       PRES   REMARKS
*CAL POLY SLO    N/A     68  54  60 NE7         N/A
*LOMPOC        MOSUNNY   57  52  82 E7        29.85R
*PISMO BEACH     N/A     76  53  45 NE1       29.84S
*SANTA YNEZ    CLOUDY    54  52  94 CALM      29.85R FOG

$$

CAZ037-038-051-011700-
SAN LUIS OBISPO COUNTY INTERIOR AND CUYAMA VALLEY


CITY           SKY/WX    TMP DP  RH WIND       PRES   REMARKS
*CUYAMA          N/A     60  49  67 E3        29.86R
PASO ROBLES    SUNNY     60  49  66 CALM      29.91R

$$

CAZ032-033-061-011700-
SOUTHERN DESERTS


CITY           SKY/WX    TMP DP  RH WIND       PRES   REMARKS
BLYTHE         SUNNY     78  46  32 CALM      29.77R
IMPERIAL       SUNNY     78  52  40 S3        29.74R
PALM SPRINGS   SUNNY     80  42  25 CALM      29.78R
THERMAL        SUNNY     83  47  28 N9        29.73R

$$

ELSEWHERE ACROSS THE WESTERN UNITED STATES AND MEXICO


CITY           SKY/WX    TMP DP  RH WIND       PRES   REMARKS
DENVER, CO     PTSUNNY   57  38  48 CALM      29.90S
GRAND CANYON,  SUNNY     56  38  50 SW8       30.07R
HONOLULU, HI   PTCLDY    75  70  83 CALM      29.90S
KAHULUI, MAUI  CLEAR     70  64  83 SE3       29.91S
LAKE TAHOE, CA SUNNY     44  30  57 S3        30.18R
LAS VEGAS, NV  SUNNY     77  36  22 N16       29.88R
MAMMOTH LAKES, FAIR      46  28  49 W9        30.21S
MEXICO CITY, M MOSUNNY   66  54  63 N5        30.24S
PHOENIX, AZ    SUNNY     76  49  38 SE8       29.82R
PORTLAND, OR   PTSUNNY   53  51  93 CALM      30.25S
RENO, NV       SUNNY     50  34  54 NE3       30.21R
SALT LAKE CITY MOSUNNY   49  35  58 W9        30.07R
SAN DIEGO, CA  PTSUNNY   68  60  75 SE5       29.85R
SAN FRANCISCO, SUNNY     72  55  55 CALM      29.91R
SAN JOSE, CA   SUNNY     65  51  60 W6        29.91R
SEATTLE, WA    PTSUNNY   53  50  89 SW3       30.23R
TIJUANA, MEX   CLOUDY    64  57  77 CALM      29.86S FOG

$$

STATION/POSITION TIME  TEMP    WIND        PRES    VSBY  WAVE
                       AIR SEA DIR/SP/G                  HT/PER
                 (UTC) (F)     (DEG/KT/KT) (MB)    (MI)  (FT/S)
POINT ARGUELLO B NOT AVBL
WEST SANTA BARBA 1600   63 61   80/ 10/ 12 1009.0R         8/11
POINT CONCEPTION NOT AVBL
EAST SANTA BARBA 1600   62 65   CALM  /  2 1009.8R
SANTA MONICA BAY 1600   67 70  130/  8/  8 1009.2R         3/11


USA.gov is the U.S. government's official web portal to all federal, state and local government web resources and services.